Location: T�bingen+AIT
(48.5342°N, 9.0700°E)
Time: 15:07:48
(UTC+01:00)

Cosmos 2263 - Pass Details

Date: 14 September 2017
Orbit: 831 x 865 km, 70.9° (Epoch: 17 November)

Event Time Altitude Azimuth Distance (km) Brightness Sun altitude
Rises 20:40:05 0° 333° (NNW) 3,387 8.1 -10.8°
Reaches altitude 10° 20:42:34 10° 336° (NNW) 2,450 7.2 -11.2°
Maximum altitude 20:48:09 66° 59° (ENE) 909 4.2 -12.1°
Enters shadow 20:53:10 13° 141° (SE) 2,239 5.9 -12.9°
